Weather History for Sioux Falls, SD

Change the Weather History Date:

Wednesday, January 11, 2012

  Actual Average Record
Temperature  
Mean Temperature 23 °F 16 °F  
Max Temperature 38 °F 26 °F 51 °F (1958)
Min Temperature 8 °F 7 °F -32 °F (1918)
Degree Days  
Heating Degree Days 42 49  
Month to date heating degree days 363 539  
Since 1 July heating degree days 2989 3672  
Cooling Degree Days 0 0  
Month to date cooling degree days 0 0  
Year to date cooling degree days 0 0  
Moisture  
Dew Point 19 °F    
Average Humidity 78    
Maximum Humidity 93    
Minimum Humidity 63    
Precipitation  
Precipitation 0.04 in 0.02 in 0.42 in (1930)
Month to date precipitation 0.04 0.21  
Year to date precipitation 0.04 0.21  
Snow  
Snow 0.40 in 0.20 in 5.00 in (1930)
Month to date snowfall 0.4 2.7  
Since 1 July snowfall 0.9 19.6  
Snow Depth 0.00 in    
Sea Level Pressure  
Sea Level Pressure 29.88 in    
Wind  
Wind Speed 20 mph (NNW)    
Max Wind Speed 35 mph    
Max Gust Speed 45 mph    
Visibility 7 miles    
Events Snow    
T = Trace of Precipitation, MM = Missing Value Source: NWS Daily Summary

Daily Weather History Graph

Daily Weather History Graph

Search for Another Location

Airport:

Trip Planner

Search our weather history database for the weather conditions in past years. The results will help you decide how hot, cold, wet, or windy it might be!

Date:

Astronomy

Jan. 11, 2012 Rise Set
Actual Time 7:59 AM CST 5:10 PM CST
Civil Twilight 7:26 AM CST 5:42 PM CST
Nautical Twilight 6:51 AM CST 6:18 PM CST
Astronomical Twilight 6:16 AM CST 6:53 PM CST
Moon 8:17 PM CST (1/11) 9:06 AM CST (1/11)
Length of Visible Light 10h 16m
Length of Day
9h 11m
Waning Gibbous, 93% of the Moon is Illuminated
Jan 11
Waning Gibbous
Jan 16
Last Quarter
Jan 23
New
Jan 30
First Quarter
Feb 7
Full

Hourly Weather History & Observations

Time (CST) Temp. Windchill Dew Point Humidity Pressure Visibility Wind Dir Wind Speed Gust Speed Precip Events Conditions
12:56 AM 25.0 °F - 21.0 °F 85% 29.62 in 10.0 mi Calm Calm - N/A   Clear
1:56 AM 24.1 °F 18.2 °F 21.9 °F 91% 29.61 in 10.0 mi NNE 4.6 mph - N/A   Clear
2:56 AM 25.0 °F - 19.9 °F 81% 29.62 in 10.0 mi Calm Calm - N/A   Clear
3:56 AM 24.1 °F 16.0 °F 21.0 °F 88% 29.65 in 10.0 mi NE 6.9 mph - N/A   Clear
4:56 AM 32.0 °F 24.2 °F 26.1 °F 79% 29.68 in 10.0 mi North 9.2 mph - N/A   Clear
5:15 AM 37.4 °F 27.8 °F 30.2 °F 75% 29.66 in 10.0 mi North 17.3 mph 26.5 mph N/A   Mostly Cloudy
5:35 AM 37.4 °F 26.9 °F 32.0 °F 81% 29.68 in 10.0 mi North 20.7 mph 29.9 mph N/A   Overcast
5:56 AM 37.0 °F 25.4 °F 30.9 °F 79% 29.73 in 10.0 mi North 25.3 mph 39.1 mph N/A   Overcast
6:19 AM 35.6 °F 23.7 °F 30.2 °F 81% 29.72 in 10.0 mi North 24.2 mph 39.1 mph N/A   Mostly Cloudy
6:56 AM 35.6 °F 23.0 °F 28.4 °F 75% 29.75 in 10.0 mi NNW 27.6 mph 39.1 mph N/A   Overcast
7:04 AM 33.8 °F 20.3 °F 28.4 °F 81% 29.76 in 10.0 mi North 28.8 mph 39.1 mph 0.00 in   Light Ice Pellets
7:12 AM 33.8 °F 20.1 °F 28.4 °F 81% 29.77 in 5.0 mi North 29.9 mph 44.9 mph 0.00 in Snow Light Ice Pellets
7:22 AM 33.8 °F 21.9 °F 28.4 °F 81% 29.77 in 3.0 mi North 21.9 mph 35.7 mph 0.00 in Snow Light Snow
7:31 AM 33.8 °F 22.5 °F 28.4 °F 81% 29.78 in 3.0 mi North 19.6 mph 27.6 mph 0.00 in Snow Light Snow
7:38 AM 33.8 °F 21.9 °F 28.4 °F 81% 29.78 in 3.0 mi North 21.9 mph 31.1 mph 0.00 in Snow Light Snow
7:40 AM 33.8 °F 22.5 °F 28.4 °F 81% 29.78 in 2.0 mi NNW 19.6 mph 31.1 mph 0.00 in Snow Light Snow
7:42 AM 33.8 °F 21.9 °F 28.4 °F 81% 29.79 in 1.2 mi NNW 21.9 mph 31.1 mph 0.00 in Snow Light Snow
7:48 AM 33.8 °F 21.3 °F 30.2 °F 87% 29.79 in 1.0 mi North 24.2 mph 31.1 mph 0.00 in Snow Light Snow
7:56 AM 33.8 °F 21.9 °F 30.2 °F 87% 29.80 in 1.2 mi North 21.9 mph 32.2 mph N/A Snow Light Snow
8:12 AM 32.0 °F 19.5 °F 30.2 °F 93% 29.81 in 0.8 mi North 21.9 mph 28.8 mph 0.00 in Snow Light Snow
8:56 AM 32.0 °F 19.5 °F 28.9 °F 88% 29.89 in 0.8 mi NNW 21.9 mph - 0.03 in Snow Light Snow
9:02 AM 32.0 °F 19.8 °F 28.4 °F 87% 29.83 in 2.0 mi NNW 20.7 mph - 0.00 in Snow Light Snow
9:08 AM 32.0 °F 19.2 °F 28.4 °F 87% 29.84 in 5.0 mi NNW 23.0 mph 31.1 mph 0.00 in Snow Light Snow
9:34 AM 32.0 °F 18.6 °F 28.4 °F 87% 29.86 in 2.5 mi NNW 25.3 mph 31.1 mph 0.00 in Snow Light Snow
9:47 AM 32.0 °F 18.1 °F 26.6 °F 80% 29.87 in 7.0 mi NNW 27.6 mph 35.7 mph 0.00 in Snow Light Snow
9:56 AM 30.9 °F 16.7 °F 26.1 °F 82% 29.92 in 9.0 mi NNW 27.6 mph 33.4 mph 0.00 in Snow Light Snow
10:56 AM 28.0 °F 13.3 °F 21.9 °F 78% 29.96 in 10.0 mi North 25.3 mph 39.1 mph 0.00 in   Overcast
11:56 AM 26.6 °F 12.4 °F 21.2 °F 80% 29.90 in 10.0 mi NNW 21.9 mph 34.5 mph N/A   Overcast
12:40 PM 26.6 °F 12.0 °F 19.4 °F 74% 29.91 in 0.8 mi NW 23.0 mph 35.7 mph 0.00 in Snow Light Snow
12:47 PM 24.8 °F 8.1 °F 19.4 °F 80% 29.91 in 6.0 mi NW 28.8 mph 34.5 mph 0.00 in Snow Light Snow
12:56 PM 24.1 °F 7.4 °F 18.0 °F 77% 29.97 in 8.0 mi NW 27.6 mph 38.0 mph 0.00 in Snow Light Snow
1:56 PM 21.9 °F 4.8 °F 15.1 °F 75% 30.00 in 9.0 mi NNW 26.5 mph 34.5 mph 0.00 in Snow Light Snow
2:26 PM 21.2 °F 4.5 °F 15.8 °F 80% 29.94 in 2.0 mi NNW 24.2 mph 33.4 mph 0.00 in Snow Light Snow
2:28 PM 21.2 °F 4.2 °F 15.8 °F 80% 29.93 in 1.5 mi NW 25.3 mph 34.5 mph 0.00 in Snow Light Snow
2:44 PM 21.2 °F 3.3 °F 12.2 °F 68% 29.93 in 6.0 mi NNW 28.8 mph 36.8 mph 0.00 in Snow Light Snow
2:56 PM 21.0 °F 3.6 °F 10.9 °F 65% 30.02 in 10.0 mi NNW 26.5 mph 36.8 mph 0.00 in   Overcast
3:56 PM 19.9 °F 2.8 °F 12.0 °F 71% 30.04 in 9.0 mi NNW 24.2 mph 32.2 mph 0.00 in Snow Light Snow
4:11 PM 19.4 °F 2.5 °F 12.2 °F 74% 29.98 in 9.0 mi NNW 23.0 mph 27.6 mph 0.00 in Snow Light Snow
4:27 PM 19.4 °F 1.8 °F 12.2 °F 74% 29.98 in 4.0 mi NNW 25.3 mph 31.1 mph 0.00 in Snow Light Snow
4:56 PM 19.0 °F 0.6 °F 9.0 °F 65% 30.06 in 9.0 mi NNW 27.6 mph 38.0 mph 0.00 in Snow Light Snow
5:21 PM 19.4 °F 2.8 °F 8.6 °F 63% 29.99 in 9.0 mi NNW 21.9 mph 31.1 mph 0.00 in Snow Light Snow
5:56 PM 19.0 °F 2.7 °F 9.0 °F 65% 30.06 in 10.0 mi NNW 20.7 mph 35.7 mph 0.00 in   Overcast
6:56 PM 18.0 °F 1.3 °F 10.0 °F 71% 30.06 in 9.0 mi NW 20.7 mph 29.9 mph 0.00 in Snow Light Snow
7:11 PM 17.6 °F 0.5 °F 10.4 °F 73% 30.00 in 2.0 mi NNW 21.9 mph 32.2 mph 0.00 in Snow Light Snow
7:22 PM 17.6 °F -0.6 °F 8.6 °F 68% 29.99 in 4.0 mi NW 25.3 mph 35.7 mph 0.00 in Snow Light Snow
7:56 PM 16.0 °F -2.8 °F 8.1 °F 71% 30.06 in 9.0 mi NW 25.3 mph 34.5 mph 0.00 in Snow Light Snow
8:56 PM 14.0 °F -4.7 °F 6.1 °F 71% 30.06 in 9.0 mi NW 23.0 mph 31.1 mph 0.00 in Snow Light Snow
9:56 PM 12.2 °F -4.8 °F 5.0 °F 73% 30.00 in 7.0 mi NW 17.3 mph 28.8 mph N/A Snow Light Snow
10:03 PM 12.2 °F -6.7 °F 3.2 °F 67% 29.99 in 9.0 mi NNW 21.9 mph 27.6 mph 0.00 in Snow Light Snow
10:43 PM 10.4 °F -10.3 °F 3.2 °F 73% 29.99 in 10.0 mi NNW 25.3 mph 34.5 mph 0.00 in   Overcast
10:56 PM 10.9 °F -9.2 °F 1.9 °F 67% 30.06 in 10.0 mi NNW 24.2 mph 33.4 mph 0.00 in   Overcast
11:56 PM 8.1 °F -11.2 °F -0.0 °F 70% 30.07 in 10.0 mi NW 19.6 mph 27.6 mph N/A   Scattered Clouds